loading
DOY 175 | 2024-06-23T12:14:21Z
Showing default

STARLINER CALYPSO 1, 59968

Orbit data source: Space-Track

STARLINER CALYPSO 1, 59968 is an American payload satellite in LEO that was launched on Wed, 05 Jun 2024 UTC via an Atlas V N22 launch vehicle from the Air Force Eastern Test Range (AFETR). Payloads include a variety of satellites, spacecraft, and rockets equipped with specific instruments for various scientific and technological missions. These include communications satellites like Starlink; space stations such as the ISS; scientific satellites like the Hubble; Earth observation satellites from companies like Planet Labs, Umbra, and HawkEye 360; GPS; miniature CubeSats for education and research; and military/defense satellites.

Loading next visibility...
Loading greatness...
STARLINER CALYPSO 1 details
NORAD ID59968
COSPAR ID
2024-109A
Orbit
LEO
Last TLE update16 hours ago
Origin
Flag of USBOCC (US)
ManufacturerBoeing C3PF
BusCST-100
MotorUnknown
Mass8,000 kg wet, 8,000 kg dry
Launch date (UTC)
2024-06-05 (3 weeks ago)
Launch vehicle
Atlas V N22
Launch site
Air Force Eastern Test Range (AFETR)
Object type
Payload
Rocket body
Debris
Radar Cross SectionLarge (>1 m²)
Predictive object data (real-time)
Latitude-37.10275°
Longitude35.26801°
Altitude424.624 km
Speed7.659 km/s
Apparent Right ascension14h 05m 30s
Apparent Declination-45° 10' 49"
Sunlit
Object is in full shadow
Predictive observer data (real-time)
Local Sidereal Time23:22:31
Azimuth246.361° WSW
Elevation-59.853°
Doppler factor1
Orbital elements
Apogee425.675 km
Perigee410.848 km
Semi-major axis6,796.398 km
Eccentricity0.0010908
Inclination51.6416°
RAAN287.3111°
Arg. of periapsis356.549°
True anomaly146.80688°
Mean anomaly146.7384°
Mean motion3.87369 °/min
BSTAR0.00033171
Period92.93 mins
Definitive object data (Epoch: 2024-06-22T20:02:42.281Z)
Latitude27.99252°
Longitude-129.58685°
Altitude425.179 km
Speed7.657 km/s
True Right ascension05h 30m 19s
True Declination27° 50' 36"
Sunlit
Object was in daylight at TLE epoch
TLE from 16 hours ago
0 STARLINER CALYPSO 1
1 59968U 24109A   24174.83521159  .00018321  00000-0  33171-3 0  9998
2 59968  51.6416 287.3111 0010908 356.5490 146.7384 15.49648437459221
Epoch: 2024-06-22T20:02Z
No data available
Other satellites on launch #109 in the year 2024 (2024-06-05 UTC)

STARLINER CALYPSO 1 Visibility forecast

Observer location: 39.9160978°, -105.1181434, 0m alt.

STARLINER CALYPSO 1 is not visible in the next 10 days
Span
Click to sort rows by Start time (UTC) header in descending order
Start Az.
Max El. time (UTC)
Max El. Az.
Max El.
End time (UTC)
End Az.